{"data":{"norad_id":53831,"epoch":"2026-05-24T21:06:08.737056Z","epoch_age_seconds":85714,"freshness":"FRESH","line1":"1 53831U 22114P   26144.87926779  .00000179  00000+0  29372-4 0  9995","line2":"2 53831  53.2151 322.0774 0001470  93.6321 266.4839 15.08836475204337","mean_motion":15.08836475,"eccentricity":0.000147,"inclination_deg":53.2151,"raan_deg":322.0774,"arg_perigee_deg":93.6321,"mean_anomaly_deg":266.4839,"bstar":2.9372e-5,"rev_number":20433,"period_min":95.437777642537,"perigee_km":538.73723349885,"apogee_km":540.77109350092,"semimajor_km":6917.8911634999,"source":"CELESTRAK","updated_at":"2026-05-25T13:38:17.571874Z"}}